Time,TemperatureF,DewpointF,PressureIn,WindDirection,WindDirectionDegrees,WindSpeedMPH,WindSpeedGustMPH,Humidity,HourlyPrecipIn,Conditions,Clouds,dailyrainin,SolarRadiationWatts/m^2,SoftwareType,DateUTC
2013-06-26 00:01:00,72.0,72.0,29.97,East,100,0.0,-999.0,100,-99.99,,,0.00,0.000000,,2013-06-26 04:01:00,
2013-06-26 00:12:00,72.0,72.0,29.97,East,100,0.0,-999.0,100,-99.99,,,0.00,0.000000,,2013-06-26 04:12:00,
2013-06-26 00:22:00,72.0,72.0,29.96,NW,320,0.0,-999.0,100,-99.99,,,0.00,0.000000,,2013-06-26 04:22:00,
2013-06-26 00:33:00,72.0,72.0,29.96,NW,320,0.0,-999.0,100,-99.99,,,0.00,0.000000,,2013-06-26 04:33:00,
2013-06-26 00:43:00,70.0,70.0,29.96,NW,320,0.0,-999.0,100,-99.99,,,0.00,0.000000,,2013-06-26 04:43:00,
2013-06-26 00:53:00,70.0,70.0,29.96,NW,320,0.0,-999.0,100,-99.99,,,0.00,0.000000,,2013-06-26 04:53:00,
2013-06-26 01:02:00,70.0,70.0,29.96,ESE,112,1.0,-999.0,100,-99.99,,,0.00,0.000000,,2013-06-26 05:02:00,
2013-06-26 01:11:00,70.0,70.0,29.96,ESE,112,1.0,-999.0,100,-99.99,,,0.00,0.000000,,2013-06-26 05:11:00,
2013-06-26 01:34:00,70.0,70.0,29.95,SSE,163,0.0,-999.0,100,-99.99,,,0.00,0.000000,,2013-06-26 05:34:00,
2013-06-26 01:43:00,70.0,70.0,29.95,SW,224,0.0,-999.0,100,-99.99,,,0.00,0.000000,,2013-06-26 05:43:00,
2013-06-26 01:52:00,70.0,70.0,29.95,SW,224,0.0,-999.0,100,-99.99,,,0.00,0.000000,,2013-06-26 05:52:00,
2013-06-26 02:02:00,70.0,70.0,29.95,NW,313,0.0,-999.0,100,-99.99,,,0.00,0.000000,,2013-06-26 06:02:00,
2013-06-26 02:11:00,70.0,70.0,29.95,West,266,0.0,-999.0,100,-99.99,,,0.00,0.000000,,2013-06-26 06:11:00,
2013-06-26 02:34:00,70.0,70.0,29.94,ESE,105,1.0,-999.0,100,-99.99,,,0.00,0.000000,,2013-06-26 06:34:00,
2013-06-26 02:43:00,70.0,70.0,29.95,NE,43,0.0,-999.0,100,-99.99,,,0.00,0.000000,,2013-06-26 06:43:00,
2013-06-26 02:53:00,70.0,70.0,29.95,NE,54,0.0,-999.0,100,-99.99,,,0.00,0.000000,,2013-06-26 06:53:00,
2013-06-26 03:01:00,70.0,70.0,29.95,NE,54,0.0,-999.0,100,-99.99,,,0.00,0.000000,,2013-06-26 07:01:00,
2013-06-26 03:11:00,70.0,70.0,29.94,SSW,200,0.0,-999.0,100,-99.99,,,0.00,0.000000,,2013-06-26 07:11:00,
2013-06-26 03:22:00,70.0,70.0,29.94,SSW,200,0.0,-999.0,100,-99.99,,,0.00,0.000000,,2013-06-26 07:22:00,
2013-06-26 03:33:00,70.0,70.0,29.93,SW,225,0.0,-999.0,100,-99.99,,,0.00,0.000000,,2013-06-26 07:33:00,
2013-06-26 03:43:00,70.0,70.0,29.93,WSW,251,0.0,-999.0,100,-99.99,,,0.00,0.000000,,2013-06-26 07:43:00,
2013-06-26 04:01:00,69.0,69.0,29.93,WSW,244,0.0,-999.0,100,-99.99,,,0.00,0.000000,,2013-06-26 08:01:00,
2013-06-26 04:33:00,69.0,69.0,29.92,SE,141,0.0,-999.0,100,-99.99,,,0.00,0.000000,,2013-06-26 08:33:00,
2013-06-26 04:42:00,68.0,68.0,29.93,NE,37,0.0,-999.0,100,-99.99,,,0.00,0.000000,,2013-06-26 08:42:00,
2013-06-26 05:01:00,69.0,69.0,29.93,WSW,238,0.0,-999.0,100,-99.99,,,0.00,0.000000,,2013-06-26 09:01:00,
2013-06-26 05:22:00,69.0,69.0,29.93,SW,214,0.0,-999.0,100,-99.99,,,0.00,0.000000,,2013-06-26 09:22:00,
2013-06-26 05:33:00,69.0,69.0,29.93,SE,131,0.0,-999.0,100,-99.99,,,0.00,0.000000,,2013-06-26 09:33:00,
2013-06-26 05:43:00,69.0,69.0,29.94,SSE,161,1.0,-999.0,100,-99.99,,,0.00,0.000000,,2013-06-26 09:43:00,
2013-06-26 05:53:00,69.0,69.0,29.94,SSE,161,1.0,-999.0,100,-99.99,,,0.00,0.000000,,2013-06-26 09:53:00,
2013-06-26 06:01:00,69.0,69.0,29.94,SE,129,0.0,-999.0,100,-99.99,,,0.00,0.000000,,2013-06-26 10:01:00,
2013-06-26 06:12:00,69.0,69.0,29.94,SE,129,0.0,-999.0,100,-99.99,,,0.00,0.000000,,2013-06-26 10:12:00,
2013-06-26 06:22:00,69.0,69.0,29.94,WNW,289,0.0,-999.0,100,-99.99,,,0.00,0.000000,,2013-06-26 10:22:00,
2013-06-26 06:34:00,69.0,69.0,29.95,West,263,0.0,-999.0,100,-99.99,,,0.00,0.000000,,2013-06-26 10:34:00,
2013-06-26 06:53:00,70.0,70.0,29.95,SSW,199,0.0,-999.0,100,-99.99,,,0.00,0.000000,,2013-06-26 10:53:00,
2013-06-26 07:02:00,70.0,70.0,29.96,South,174,1.0,-999.0,100,-99.99,,,0.00,0.000000,,2013-06-26 11:02:00,
2013-06-26 07:22:00,71.0,71.0,29.96,South,173,1.0,-999.0,100,-99.99,,,0.00,0.000000,,2013-06-26 11:22:00,
2013-06-26 07:33:00,71.0,71.0,29.96,SSW,202,1.0,-999.0,100,-99.99,,,0.00,0.000000,,2013-06-26 11:33:00,
2013-06-26 07:44:00,71.0,71.0,29.97,South,187,0.0,-999.0,100,-99.99,,,0.00,0.000000,,2013-06-26 11:44:00,
2013-06-26 07:52:00,71.0,71.0,29.97,South,187,0.0,-999.0,100,-99.99,,,0.00,0.000000,,2013-06-26 11:52:00,
2013-06-26 08:02:00,71.0,71.0,29.97,SW,219,0.0,-999.0,100,-99.99,,,0.00,0.000000,,2013-06-26 12:02:00,
2013-06-26 08:12:00,71.0,71.0,29.97,SW,219,0.0,-999.0,100,-99.99,,,0.00,0.000000,,2013-06-26 12:12:00,
2013-06-26 08:22:00,71.0,71.0,29.97,West,264,1.0,-999.0,100,-99.99,,,0.00,0.100000,,2013-06-26 12:22:00,
2013-06-26 08:33:00,71.0,71.0,29.98,WSW,251,1.0,-999.0,100,-99.99,,,0.00,0.100000,,2013-06-26 12:33:00,
2013-06-26 08:43:00,71.0,71.0,29.98,SW,222,1.0,-999.0,100,-99.99,,,0.00,0.100000,,2013-06-26 12:43:00,
2013-06-26 08:52:00,71.0,71.0,29.98,SW,222,1.0,-999.0,100,-99.99,,,0.00,0.100000,,2013-06-26 12:52:00,
2013-06-26 09:02:00,72.0,72.0,29.98,SW,222,1.0,-999.0,100,-99.99,,,0.00,0.200000,,2013-06-26 13:02:00,
2013-06-26 09:34:00,73.0,73.0,29.98,SSW,206,2.0,-999.0,99,-99.99,,,0.00,0.300000,,2013-06-26 13:34:00,
2013-06-26 09:43:00,73.0,73.0,29.98,SSW,206,2.0,-999.0,99,-99.99,,,0.00,0.300000,,2013-06-26 13:43:00,
2013-06-26 09:53:00,74.0,71.0,29.97,SW,224,2.0,-999.0,92,-99.99,,,0.00,0.300000,,2013-06-26 13:53:00,
2013-06-26 10:02:00,74.0,71.0,29.97,WSW,253,3.0,-999.0,90,-99.99,,,0.00,0.300000,,2013-06-26 14:02:00,
2013-06-26 10:24:00,75.0,71.0,29.97,West,263,3.0,-999.0,88,-99.99,,,-99.99,0.300000,,2013-06-26 14:24:00,
2013-06-26 10:34:00,76.0,71.0,29.97,West,266,2.0,-999.0,85,-99.99,,,0.00,0.500000,,2013-06-26 14:34:00,
2013-06-26 10:42:00,77.0,69.0,29.96,SW,233,1.0,-999.0,76,-99.99,,,0.00,0.700000,,2013-06-26 14:42:00,
2013-06-26 10:53:00,77.0,69.0,29.96,SW,233,1.0,-999.0,76,-99.99,,,0.00,0.700000,,2013-06-26 14:53:00,
2013-06-26 11:02:00,79.0,68.0,29.95,SW,233,2.0,-999.0,71,-99.99,,,0.00,0.800000,,2013-06-26 15:02:00,
2013-06-26 11:12:00,79.0,68.0,29.95,SSW,206,2.0,-999.0,69,-99.99,,,0.00,0.800000,,2013-06-26 15:12:00,
2013-06-26 11:34:00,80.0,69.0,29.95,WSW,248,3.0,-999.0,68,-99.99,,,0.00,0.900000,,2013-06-26 15:34:00,
2013-06-26 11:44:00,81.0,69.0,29.95,WSW,253,3.0,-999.0,67,-99.99,,,0.00,0.900000,,2013-06-26 15:44:00,
2013-06-26 11:53:00,81.0,69.0,29.95,WSW,253,3.0,-999.0,67,-99.99,,,0.00,0.900000,,2013-06-26 15:53:00,
2013-06-26 12:02:00,82.0,68.0,29.95,WSW,241,3.0,-999.0,64,-99.99,,,0.00,1.200000,,2013-06-26 16:02:00,
2013-06-26 12:22:00,82.0,69.0,29.95,WSW,252,3.0,-999.0,63,-99.99,,,0.00,0.800000,,2013-06-26 16:22:00,
2013-06-26 12:34:00,83.0,70.0,29.95,WSW,248,2.0,-999.0,65,-99.99,,,0.00,0.700000,,2013-06-26 16:34:00,
2013-06-26 12:43:00,83.0,70.0,-100.00,SW,222,3.0,-999.0,64,-99.99,,,0.00,1.000000,,2013-06-26 16:43:00,
2013-06-26 12:52:00,83.0,70.0,-100.00,SW,222,3.0,-999.0,64,-99.99,,,0.00,1.000000,,2013-06-26 16:52:00,
2013-06-26 13:02:00,83.0,69.0,-100.00,SW,236,3.0,-999.0,62,-99.99,,,0.00,1.000000,,2013-06-26 17:02:00,
2013-06-26 13:11:00,83.0,69.0,29.94,SW,236,3.0,-999.0,62,-99.99,,,0.00,1.000000,,2013-06-26 17:11:00,
2013-06-26 13:23:00,84.0,70.0,-100.00,SW,230,3.0,-999.0,62,-99.99,,,0.00,1.000000,,2013-06-26 17:23:00,
2013-06-26 13:33:00,85.0,70.0,-100.00,SW,236,3.0,-999.0,59,-99.99,,,0.00,1.200000,,2013-06-26 17:33:00,
2013-06-26 13:43:00,81.0,70.0,29.94,West,262,7.0,-999.0,70,-99.99,,,0.00,0.200000,,2013-06-26 17:43:00,
2013-06-26 13:52:00,81.0,70.0,29.94,West,262,7.0,-999.0,70,-99.99,,,0.00,0.200000,,2013-06-26 17:52:00,
2013-06-26 14:34:00,74.0,74.0,29.93,South,188,1.0,-999.0,100,-99.99,,,0.00,0.100000,,2013-06-26 18:34:00,
2013-06-26 14:43:00,73.0,73.0,29.93,ESE,116,1.0,-999.0,100,-99.99,,,0.00,0.100000,,2013-06-26 18:43:00,
2013-06-26 14:52:00,73.0,73.0,29.93,ESE,116,1.0,-999.0,100,-99.99,,,0.00,0.100000,,2013-06-26 18:52:00,
2013-06-26 15:02:00,74.0,74.0,-100.00,NE,43,1.0,-999.0,100,-99.99,,,0.00,0.100000,,2013-06-26 19:02:00,
2013-06-26 15:11:00,74.0,74.0,-100.00,East,90,1.0,-999.0,100,-99.99,,,0.00,0.200000,,2013-06-26 19:11:00,
2013-06-26 15:33:00,74.0,74.0,29.91,East,93,1.0,-999.0,100,-99.99,,,0.00,0.300000,,2013-06-26 19:33:00,
2013-06-26 15:52:00,75.0,75.0,-100.00,ENE,57,1.0,-999.0,100,-99.99,,,0.00,0.400000,,2013-06-26 19:52:00,
2013-06-26 16:01:00,76.0,76.0,29.91,NNE,17,0.0,-999.0,98,-99.99,,,0.00,0.500000,,2013-06-26 20:01:00,
2013-06-26 16:12:00,76.0,76.0,29.91,NNE,17,0.0,-999.0,98,-99.99,,,0.00,0.500000,,2013-06-26 20:12:00,
2013-06-26 16:34:00,78.0,70.0,29.90,East,90,1.0,-999.0,76,-99.99,,,0.00,0.600000,,2013-06-26 20:34:00,
2013-06-26 16:43:00,79.0,70.0,29.88,ESE,112,1.0,-999.0,73,-99.99,,,0.00,0.700000,,2013-06-26 20:43:00,
2013-06-26 16:52:00,79.0,70.0,29.88,ESE,112,1.0,-999.0,73,-99.99,,,0.00,0.700000,,2013-06-26 20:52:00,
2013-06-26 17:02:00,81.0,69.0,-100.00,South,185,1.0,-999.0,67,-99.99,,,0.00,0.900000,,2013-06-26 21:02:00,
2013-06-26 17:12:00,81.0,67.0,-100.00,WSW,250,1.0,-999.0,63,-99.99,,,0.00,0.800000,,2013-06-26 21:12:00,
2013-06-26 17:33:00,82.0,68.0,-100.00,South,177,1.0,-999.0,64,-99.99,,,0.00,0.700000,,2013-06-26 21:33:00,
2013-06-26 17:43:00,83.0,69.0,-100.00,SW,232,1.0,-999.0,63,-99.99,,,0.00,0.900000,,2013-06-26 21:43:00,
2013-06-26 17:52:00,83.0,69.0,-100.00,SW,232,1.0,-999.0,63,-99.99,,,0.00,0.900000,,2013-06-26 21:52:00,
2013-06-26 18:01:00,85.0,69.0,-100.00,SSW,195,1.0,-999.0,58,-99.99,,,0.00,0.900000,,2013-06-26 22:01:00,
2013-06-26 18:11:00,85.0,69.0,-100.00,SSW,195,1.0,-999.0,58,-99.99,,,0.00,0.900000,,2013-06-26 22:11:00,
2013-06-26 18:22:00,86.0,69.0,-100.00,SSW,201,2.0,-999.0,58,-99.99,,,0.00,0.800000,,2013-06-26 22:22:00,
2013-06-26 18:34:00,86.0,70.0,-100.00,South,188,2.0,-999.0,57,-99.99,,,0.00,0.800000,,2013-06-26 22:34:00,
2013-06-26 18:43:00,86.0,70.0,-100.00,South,173,2.0,-999.0,58,-99.99,,,-99.99,0.700000,,2013-06-26 22:43:00,
2013-06-26 18:52:00,86.0,70.0,-100.00,South,173,2.0,-999.0,58,-99.99,,,-99.99,0.700000,,2013-06-26 22:52:00,
2013-06-26 19:02:00,86.0,71.0,-100.00,South,169,2.0,-999.0,61,-99.99,,,0.00,0.500000,,2013-06-26 23:02:00,
2013-06-26 19:22:00,86.0,71.0,29.81,SSW,195,2.0,-999.0,60,-99.99,,,0.00,0.400000,,2013-06-26 23:22:00,
2013-06-26 19:34:00,86.0,71.0,-100.00,SSW,193,2.0,-999.0,60,-99.99,,,0.00,0.300000,,2013-06-26 23:34:00,
2013-06-26 19:43:00,86.0,71.0,-100.00,SSW,194,2.0,-999.0,61,-99.99,,,0.00,0.300000,,2013-06-26 23:43:00,
2013-06-26 20:01:00,85.0,71.0,29.81,SSW,205,2.0,-999.0,62,-99.99,,,0.00,0.200000,,2013-06-27 00:01:00,
2013-06-26 20:12:00,84.0,72.0,29.82,SSW,209,2.0,-999.0,67,-99.99,,,0.00,0.100000,,2013-06-27 00:12:00,
2013-06-26 20:22:00,84.0,72.0,29.82,SSW,209,2.0,-999.0,67,-99.99,,,0.00,0.100000,,2013-06-27 00:22:00,
2013-06-26 20:33:00,84.0,72.0,29.82,SSW,209,2.0,-999.0,67,-99.99,,,0.00,0.100000,,2013-06-27 00:33:00,
2013-06-26 20:43:00,84.0,72.0,29.82,SSW,209,2.0,-999.0,67,-99.99,,,0.00,0.100000,,2013-06-27 00:43:00,
2013-06-26 21:01:00,83.0,73.0,-100.00,SSW,201,2.0,-999.0,73,-99.99,,,0.00,0.000000,,2013-06-27 01:01:00,
2013-06-26 21:11:00,82.0,74.0,-100.00,SSW,210,2.0,-999.0,76,-99.99,,,0.00,0.000000,,2013-06-27 01:11:00,
2013-06-26 21:22:00,82.0,74.0,-100.00,SSW,210,2.0,-999.0,76,-99.99,,,0.00,0.000000,,2013-06-27 01:22:00,
2013-06-26 21:32:00,81.0,74.0,29.81,SW,216,2.0,-999.0,78,-99.99,,,0.00,0.000000,,2013-06-27 01:32:00,
2013-06-26 21:43:00,81.0,74.0,29.81,SSW,207,2.0,-999.0,79,-99.99,,,0.00,0.000000,,2013-06-27 01:43:00,
2013-06-26 21:53:00,81.0,74.0,29.81,SSW,207,2.0,-999.0,79,-99.99,,,0.00,0.000000,,2013-06-27 01:53:00,
2013-06-26 22:01:00,81.0,74.0,29.81,SSW,204,2.0,-999.0,80,-99.99,,,0.00,0.000000,,2013-06-27 02:01:00,
2013-06-26 22:32:00,80.0,74.0,29.81,SW,218,2.0,-999.0,82,-99.99,,,0.00,0.000000,,2013-06-27 02:32:00,
2013-06-26 22:42:00,80.0,75.0,29.81,SSW,204,2.0,-999.0,83,-99.99,,,0.00,0.000000,,2013-06-27 02:42:00,
2013-06-26 22:52:00,80.0,75.0,29.81,SSW,204,2.0,-999.0,83,-99.99,,,0.00,0.000000,,2013-06-27 02:52:00,
2013-06-26 23:02:00,80.0,75.0,29.81,SSW,203,3.0,-999.0,83,-99.99,,,0.00,0.000000,,2013-06-27 03:02:00,
2013-06-26 23:11:00,80.0,75.0,29.81,SSW,203,3.0,-999.0,83,-99.99,,,0.00,0.000000,,2013-06-27 03:11:00,
2013-06-26 23:21:00,80.0,74.0,29.82,SW,223,2.0,-999.0,83,-99.99,,,0.00,0.000000,,2013-06-27 03:21:00,
2013-06-26 23:33:00,80.0,75.0,29.83,West,262,2.0,-999.0,84,-99.99,,,0.00,0.000000,,2013-06-27 03:33:00,
2013-06-26 23:52:00,79.0,75.0,29.84,West,265,2.0,-999.0,86,-99.99,,,0.00,0.000000,,2013-06-27 03:52:00,